Regional Weather Roundup
Issued by NWS

Home | Current Version | Previous Version | Graphics & Text | Print | Product List | Glossary Off
Versions: 1 2 3 4 5 6 7 8 9 10 11 12 13 14 15 16 17 18 19 20 21 22 23 24 25 26 27 28 29 30 31 32 33 34 35 36 37 38 39 40 41 42 43 44 45 46 47 48 49 50

000
ASUS43 KMPX 272110
RWRMN
WEATHER ROUNDUP FOR MINNESOTA
NATIONAL WEATHER SERVICE TWIN CITIES/CHANHASSEN MN
400 PM CDT THU APR 27 2017


NOTE: "FAIR" INDICATES FEW OR NO CLOUDS BELOW 12,000 FEET WITH NO
SIGNIFICANT WEATHER AND/OR OBSTRUCTIONS TO VISIBILITY. N/A MEANS
CURRENT SKY AND/OR WEATHER CONDITIONS ARE NOT AVAILABLE.

MNZ060>063-068>070-272200-
   Twin Cities Metro

CITY           SKY/WX    TMP DP  RH WIND       PRES   REMARKS
TWIN CITIES    CLOUDY    35  24  64 W16       29.62R WCI  25
ST PAUL        CLOUDY    34  26  72 NW13G24   29.63R WCI  25
CRYSTAL        CLOUDY    34  22  61 W13       29.62R WCI  25
BLAINE         CLOUDY    36  27  69 W13G18    29.61R
LAKEVILLE      CLOUDY    34  28  80 W16G22    29.62S WCI  23
EDEN PRAIRIE   CLOUDY    36  24  62 NW15      29.62R
SOUTH ST PAUL  CLOUDY    35  26  68 W9        29.62S WCI  28
LAKE ELMO      CLOUDY    34  28  80 W13       29.62S WCI  25
$$
MNZ001>005-007-008-013>017-022>024-027-028-272200-
   Northwest Minnesota

CITY           SKY/WX    TMP DP  RH WIND       PRES   REMARKS
BEMIDJI        CLOUDY    28  22  78 N13G23    29.60S WCI  17
HALLOCK        CLOUDY    43  30  61 N16       29.65S
ROSEAU         LGT SNOW  34  27  75 N12       29.64F WCI  25
WARROAD        LGT SNOW  30  25  80 N12       29.64S WCI  21
THIEF RVR FALL CLOUDY    31  24  75 N13       29.66S WCI  21
CROOKSTON      CLOUDY    36  27  69 N6        29.67F
FOSSTON        CLOUDY    30  21  69 N15       29.65S WCI  19
DETROIT LAKES  CLOUDY    30  27  86 NW13      29.65S WCI  20
MOORHEAD       MOSUNNY   36  28  75 NW17      29.69S
PARK RAPIDS    CLOUDY    31  19  61 N17       29.60S WCI  19
MAHNOMEN       CLOUDY    30  25  79 N5        29.64S WCI  25
$$
MNZ006-009>011-018-025>026-272200-
   North Central Minnesota

CITY           SKY/WX    TMP DP  RH WIND       PRES   REMARKS
BAUDETTE       CLOUDY    27  22  81 N10       29.60S WCI  17
FLAG ISLAND    CLOUDY    28  21  74 N16       29.62F WCI  17
INTL FALLS     CLOUDY    28  17  63 N14       29.56F WCI  17
WASKISH        CLOUDY    28  21  74 NW10G16   29.61S WCI  19
BIG FORK       CLOUDY    28  18  64 N5        29.56F WCI  23
LONGVILLE      CLOUDY    28  21  74 NW10      29.58S WCI  19
GRAND RAPIDS   CLOUDY    28  19  69 NW14      29.57S WCI  17
CRANE LAKE     CLOUDY    27  18  69 N10G20    29.56S WCI  17
ORR            CLOUDY    27  16  63 NW9       29.51F WCI  17
COOK           CLOUDY    27  18  69 NW8G17    29.54S WCI  18
WALKER         CLOUDY    28  20  72 NW13G18   29.59S WCI  17
$$
MNZ012-019>021-037-272200-
   Northeast Minnesota

CITY           SKY/WX    TMP DP  RH WIND       PRES   REMARKS
DULUTH         CLOUDY    29  20  69 NW13      29.52R WCI  19
ELY            CLOUDY    25  16  68 NW16G22   29.50S WCI  12
HIBBING        CLOUDY    27  18  69 NW12      29.53S WCI  17
EVELETH        CLOUDY    28  17  64 NW8G16    29.53S WCI  20
DULUTH HARBOR  CLOUDY    32  23  69 W13       29.57S WCI  22
TWO HARBORS    CLOUDY    32  21  64 NW5       29.50S WCI  27
SILVER BAY     CLOUDY    30  21  69 NW8       29.49R WCI  23
GRAND MARAIS     N/A     29  23  78 VRB3      29.47S
G MARAIS ARPRT LGT SNOW  21  16  79 CALM      29.40S
$$
MNZ029>031-032-039>041-046>048-054>057-064-272200-
   West Central Minnesota

CITY           SKY/WX    TMP DP  RH WIND       PRES   REMARKS
FERGUS FALLS   CLOUDY    32  25  74 N20G26    29.67S WCI  20
WHEATON        CLOUDY    36  25  64 NW15G23   29.71S
MORRIS         CLOUDY    34  25  69 NW18      29.67R WCI  23
ALEXANDRIA     CLOUDY    31  22  69 NW16G23   29.64R WCI  20
ELBOW LAKE     CLOUDY    31  25  79 W17G23    29.67S WCI  20
WADENA         CLOUDY    28  25  86 NW8       29.62S WCI  20
GLENWOOD       CLOUDY    30  25  80 NW14G20   29.65R WCI  20
APPLETON       CLOUDY    36  25  64 NW13G22   29.69S
BENSON         CLOUDY    36  23  60 N20G25    29.69R
ORTONVILLE     CLOUDY    37  25  60 NW14G22   29.69S
MADISON        CLOUDY    39  27  60 N17G23    29.69S
WILLMAR        CLOUDY    34  27  75 NW17      29.67R WCI  23
$$
MNZ033>034-036-042>043-049>051-058-059-272200-
   Central Minnesota

CITY           SKY/WX    TMP DP  RH WIND       PRES   REMARKS
ST CLOUD       CLOUDY    31  23  72 NW12G21   29.63R WCI  22
SAUK CENTRE    CLOUDY    31  22  70 NW17      29.64R WCI  19
PAYNESVILLE    CLOUDY    32  24  72 NW14G21   29.65R WCI  22
AITKIN         CLOUDY    30  19  64 NW8       29.57R WCI  23
PINE RIVER     CLOUDY    28  21  74 NW9       29.63S WCI  20
BRAINERD       CLOUDY    29  21  72 NW15      29.60R WCI  18
STAPLES        CLOUDY    28  23  80 NW12      29.61S WCI  18
LONG PRAIRIE   CLOUDY    32  23  69 W15       29.63S WCI  22
LITTLE FALLS   CLOUDY    30  23  74 NW13      29.62S WCI  20
LITCHFIELD     CLOUDY    34  27  75 NW10G21   29.64R WCI  26
BUFFALO        CLOUDY    32  23  70 NW14G20   29.64S WCI  22
MAPLE LAKE     CLOUDY    33  26  77 NW13      29.65R WCI  23
HUTCHINSON     CLOUDY    34  29  80 W17       29.65S WCI  23
$$
MNZ037-044-045-052-053-272200-
   East Central Minnesota

CITY           SKY/WX    TMP DP  RH WIND       PRES   REMARKS
PRINCETON      CLOUDY    32  25  74 W12G17    29.63R WCI  23
MORA           CLOUDY    32  23  69 W12       29.62R WCI  23
CAMBRIDGE      CLOUDY    34  21  60 W13G18    29.60R WCI  25
RUSH CITY      CLOUDY    31  24  73 W8        29.61R WCI  24
MOOSE LAKE     CLOUDY    30  21  69 NW9       29.56R WCI  22
HINCKLEY       CLOUDY    32  23  69 NW8       29.59R WCI  25
CLOQUET        CLOUDY    28  19  69 W12G20    29.54S WCI  18
MCGREGOR       CLOUDY    30  23  74 NW9       29.57S WCI  22
$$
MNZ071>073-080-081-089-090-097-098-272200-
   Southwest Minnesota

CITY           SKY/WX    TMP DP  RH WIND       PRES   REMARKS
MONTEVIDEO     CLOUDY    36  27  69 N15G23    29.68S
GRANITE FALLS  CLOUDY    37  28  72 W18G26    29.70S
CANBY          PTSUNNY   41  29  62 NW17      29.70S
MARSHALL       CLOUDY    38  28  67 NW17G24   29.69R
REDWOOD FALLS  CLOUDY    36  24  62 NW17G24   29.67S
OLIVIA         CLOUDY    34  28  80 NW20G25   29.66S WCI  22
PIPESTONE      PTSUNNY   43  27  52 N16G24    29.66S
WINDOM         SUNNY     37  28  70 W18G26    29.67S
WORTHINGTON    CLOUDY    39  29  67 NW12      29.68S
JACKSON        CLOUDY    36  28  75 W13G23    29.67S
TRACY          CLOUDY    38  31  76 NW14G24   29.68S
SLAYTON        CLOUDY    38  30  73 NW18      29.68S
$$
MNZ065>067-074>077-082>085-091>093-272200-
   South Central Minnesota

CITY           SKY/WX    TMP DP  RH WIND       PRES   REMARKS
MANKATO        CLOUDY    35  26  69 NW15G25   29.66R WCI  25
NEW ULM        CLOUDY    36  27  69 NW18      29.66S
ST JAMES       CLOUDY    36  28  75 W21G26    29.68S
FAIRMONT       CLOUDY    36  27  69 NW14G24   29.68R
GLENCOE        CLOUDY    34  31  88 W13       29.64R WCI  25
FARIBAULT      CLOUDY    36  28  75 W12G17    29.64R
OWATONNA       CLOUDY    36  28  75 W17       29.64S
WASECA         CLOUDY    36  30  80 W20       29.66R
ALBERT LEA     CLOUDY    34  27  75 W12G24    29.65R WCI  25
$$
MNZ078>079-086>088-094>096-272200-
   Southeast Minnesota

CITY           SKY/WX    TMP DP  RH WIND       PRES   REMARKS
ROCHESTER      CLOUDY    34  30  85 W16G28    29.62R WCI  24
RED WING       CLOUDY    36  27  69 W14       29.61R
STANTON        CLOUDY    36  29  73 W13G21    29.61S
DODGE CENTER   CLOUDY    34  28  80 W16G24    29.62R WCI  23
WINONA         CLOUDY    37  32  81 NW17G24   29.63R
AUSTIN         CLOUDY    36  28  75 W20       29.63S
PRESTON        CLOUDY    35  29  80 W17       29.63R WCI  25
$$
ABBREVIATIONS USED IN REMARKS
   TC - TEMPERATURES IN CELSIUS
  WCI - WIND CHILL INDEX
   HX - HEAT INDEX
  VSB - VISIBILITY
$$




USA.gov is the U.S. government's official web portal to all federal, state and local government web resources and services.